Regional Weather Roundup
Issued by NWS Sioux Falls, SD

Home | Current Version | Previous Version | Graphics & Text | Print | Product List | Glossary On
Versions: 1 2 3 4 5 6 7 8 9 10 11 12 13 14 15 16 17 18 19 20 21 22 23 24 25 26 27 28 29 30 31 32 33 34 35 36 37 38 39 40 41 42 43 44 45 46 47 48 49 50
000
ASUS43 KFSD 020802
RWRFSD

WEATHER ROUNDUP FOR SE SOUTH DAKOTA/SW MINNESOTA/NW IOWA
NATIONAL WEATHER SERVICE SIOUX FALLS SD
300 AM CDT MON MAY 02 2016

NOTE: "FAIR" INDICATES FEW OR NO CLOUDS BELOW 12,000 FEET WITH NO
SIGNIFICANT WEATHER AND OR OBSTRUCTIONS TO VISIBILITY.


SDZ038>040-050-052>070-020900-
SOUTHEAST SOUTH DAKOTA

CITY           SKY/WX    TMP DP  RH WIND       PRES   REMARKS
BROOKINGS      CLEAR     38  32  79 CALM      30.14F
CHAMBERLAIN    NOT AVBL
HURON          CLEAR     38  34  85 W8        30.15F
MADISON        FAIR      39  36  87 CALM      30.15F
MITCHELL       CLEAR     41  36  82 W6        30.17F
SIOUX FALLS    CLEAR     36  33  89 CALM      30.15F
WINNER         FAIR      39  31  72 SW7       30.19F
YANKTON        CLEAR     37  34  87 W6        30.16F
$$

MNZ071-072-080-081-089-090-097-098-020900-
SOUTHWEST MINNESOTA

CITY           SKY/WX    TMP DP  RH WIND       PRES   REMARKS
FAIRMONT       CLEAR     43  34  70 NW6       30.11F
JACKSON        CLEAR     41  34  75 W5        30.14S
LUVERNE        CLEAR     36  34  93 CALM      30.15F
MARSHALL       CLEAR     40  32  73 W3        30.14F
MONTEVIDEO     CLEAR     43  30  61 W3        30.15S
REDWOOD FALLS  CLEAR     38  33  82 E5        30.14R
TRACY          CLEAR     42  35  75 W7        30.14F
WINDOM         PTCLDY    39  37  93 CALM      30.14S
WORTHINGTON    CLEAR     39  35  86 W8        30.14F
$$

IAZ001>003-012>014-020>022-031-032-NEZ013-014-SDZ071-020900-
NORTHWEST IOWA

CITY           SKY/WX    TMP DP  RH WIND       PRES   REMARKS
DENISON        CLOUDY    45 N/A N/A CALM      30.12S
ESTHERVILLE    CLEAR     41  37  86 NW10      30.12F
SIOUX CITY     CLEAR     39  35  86 NW7       30.15F
SPENCER        CLEAR     36  34  92 NW6       30.13F
STORM LAKE     CLEAR     43  37  81 N3        30.14S
$$

ABBREVIATIONS USED IN REMARKS
   TC - TEMPERATURE IN CELSIUS
  WCI - WIND CHILL INDEX
   HX - HEAT INDEX
  VSB - VISIBILITY





USA.gov is the U.S. government's official web portal to all federal, state and local government web resources and services.